EW4885 Weather Reports


time (UTC)temp
F
wind
direction
speed
knots
gust
knots
rain 1hr
in
rain 24hr
in
rain mn
in
humidity
%
barometer
mb
20260906070002 61 40 0.0 0.0 0.00 0.00 0.00 82 1022.7
20260906064559 60 301 0.0 2.6 0.00 0.00 0.00 83 1022.8
20260906063057 60 335 0.9 2.6 0.00 0.00 0.00 84 1022.6
20260906061601 59 301 0.0 0.0 0.00 0.00 0.00 86 1022.6
20260906060050 59 323 0.0 0.0 0.00 0.00 0.00 87 1022.4
20260906054547 58 310 0.0 0.0 0.00 0.00 0.00 89 1022.2
20260906053052 58 310 0.0 0.0 0.00 0.00 0.00 89 1022.1
20260906051542 58 307 0.9 2.6 0.00 0.00 0.00 90 1022.1
20260906050042 58 304 0.9 2.6 0.00 0.00 0.00 90 1021.8
20260906044539 59 273 0.9 3.5 0.00 0.00 0.00 89 1021.8
20260906043038 59 302 0.0 0.0 0.00 0.00 0.00 89 1021.7
20260906041546 60 289 0.9 2.6 0.00 0.00 0.00 89 1021.7
20260906040035 60 342 0.0 2.6 0.00 0.00 0.00 89 1021.7
20260906034541 60 5 0.9 1.7 0.00 0.00 0.00 89 1021.8
20260906033035 61 5 0.9 2.6 0.00 0.00 0.00 88 1021.8
20260906031536 61 5 0.0 2.6 0.00 0.00 0.00 87 1021.9
20260906030034 61 338 1.7 3.5 0.00 0.00 0.00 87 1021.9
20260906024528 62 322 1.7 4.3 0.00 0.00 0.00 88 1022.0
20260906023027 62 309 2.6 4.3 0.00 0.00 0.00 89 1022.0
20260906021526 62 269 1.7 3.5 0.00 0.00 0.00 89 1022.0
20260906020024 62 319 0.0 0.0 0.00 0.00 0.00 88 1021.9
20260906014538 63 319 0.0 0.0 0.00 0.00 0.00 88 1021.9
20260906013023 63 338 0.0 0.0 0.00 0.00 0.00 87 1021.8
20260906011517 64 15 0.0 1.7 0.00 0.00 0.00 86 1021.8
20260906010035 64 5 1.7 3.5 0.00 0.00 0.00 86 1021.8
20260906004514 65 341 2.6 5.2 0.00 0.00 0.00 85 1021.6
20260906003013 65 351 1.7 3.5 0.00 0.00 0.00 85 1021.7
20260906001511 65 304 1.7 2.6 0.00 0.00 0.00 84 1021.8
20260906000011 65 319 2.6 4.3 0.00 0.00 0.00 85 1021.8
20260905234510 65 320 1.7 3.5 0.00 0.00 0.00 85 1021.9
20260905233010 65 306 0.9 2.6 0.00 0.00 0.00 84 1022.1
20260905231506 66 338 0.0 0.0 0.00 0.00 0.00 83 1021.9
20260905230004 66 338 0.0 0.0 0.00 0.00 0.00 82 1022.1
20260905224502 67 338 0.0 0.0 0.00 0.00 0.00 81 1022.1
20260905223058 68 338 0.0 2.6 0.00 0.00 0.00 79 1022.1
20260905221557 68 333 1.7 3.5 0.00 0.00 0.00 79 1021.9
20260905220055 68 316 2.6 5.2 0.00 0.00 0.00 79 1021.9
20260905214554 69 314 0.9 2.6 0.00 0.00 0.00 78 1021.9
20260905213057 69 324 1.7 3.5 0.00 0.00 0.00 77 1021.9
20260905211553 70 337 0.9 2.6 0.00 0.00 0.00 75 1021.9
20260905210056 71 337 0.0 2.6 0.00 0.00 0.00 74 1022.1
20260905204552 71 350 0.9 4.3 0.00 0.00 0.00 73 1022.2
20260905203058 72 25 1.7 3.5 0.00 0.00 0.00 72 1022.1
20260905201602 73 12 1.7 4.3 0.00 0.00 0.00 71 1022.1
20260905200055 73 13 1.7 5.2 0.00 0.00 0.00 69 1022.0
20260905194509 74 23 2.6 7.0 0.00 0.00 0.00 68 1021.9
20260905193015 74 26 3.5 6.1 0.00 0.00 0.00 67 1021.9
20260905191520 75 23 1.7 7.0 0.00 0.00 0.00 66 1021.7
20260905190008 76 17 4.3 7.0 0.00 0.00 0.00 65 1021.7
20260905184508 76 13 2.6 6.1 0.00 0.00 0.00 64 1021.7
20260905183006 77 19 4.3 7.0 0.00 0.00 0.00 63 1021.5
20260905181506 78 15 4.3 8.7 0.00 0.00 0.00 61 1021.3
20260905180006 79 343 4.3 9.6 0.00 0.00 0.00 60 1021.2
20260905174505 80 350 6.1 9.6 0.00 0.00 0.00 57 1021.1
20260905173005 81 346 5.2 9.6 0.00 0.00 0.00 56 1021.0
20260905171504 82 5 5.2 8.7 0.00 0.00 0.00 55 1021.0
20260905170004 82 5 5.2 9.6 0.00 0.00 0.00 54 1020.9
20260905164503 83 39 6.1 12.2 0.00 0.00 0.00 51 1020.9
20260905163002 84 9 4.3 9.6 0.00 0.00 0.00 49 1020.9
20260905161505 84 29 6.1 12.2 0.00 0.00 0.00 49 1020.9
20260905160003 85 335 5.2 13.0 0.00 0.00 0.00 48 1020.8
20260905154501 85 331 3.5 7.8 0.00 0.00 0.00 45 1020.7
20260905153000 85 330 2.6 6.1 0.00 0.00 0.00 44 1020.7
20260905151600 87 236 2.6 7.0 0.00 0.00 0.00 43 1020.9
20260905150101 87 261 2.6 5.2 0.00 0.00 0.00 42 1021.0
20260905144559 87 309 3.5 7.0 0.00 0.00 0.00 44 1020.9
20260905143058 86 319 3.5 6.1 0.00 0.00 0.00 44 1021.0
20260905141559 87 279 3.5 7.8 0.00 0.00 0.00 43 1021.1
20260905140112 87 249 1.7 6.1 0.00 0.00 0.00 43 1021.0
20260905134601 87 296 4.3 7.0 0.00 0.00 0.00 43 1021.2
20260905133054 86 306 3.5 9.6 0.00 0.00 0.00 44 1021.4
20260905131555 86 315 4.3 7.0 0.00 0.00 0.00 44 1021.6
20260905130054 87 327 4.3 7.0 0.00 0.00 0.00 42 1021.6
20260905124551 86 345 2.6 7.8 0.00 0.00 0.00 44 1021.5
20260905123049 86 270 2.6 6.1 0.00 0.00 0.00 44 1021.6
20260905121550 85 36 2.6 8.7 0.00 0.00 0.00 46 1021.6
20260905120046 85 325 6.1 9.6 0.00 0.00 0.00 48 1021.6
20260905114546 84 47 4.3 7.8 0.00 0.00 0.00 46 1021.7
20260905113041 83 261 2.6 6.1 0.00 0.00 0.00 51 1021.6
20260905111540 81 236 1.7 6.1 0.00 0.00 0.00 54 1021.7
20260905110044 82 5 2.6 7.0 0.00 0.00 0.00 53 1021.7
20260905104533 82 229 3.5 6.1 0.00 0.00 0.00 54 1021.8
20260905103033 82 323 3.5 7.0 0.00 0.00 0.00 53 1021.9
20260905101530 82 284 2.6 7.0 0.00 0.00 0.00 54 1021.9
20260905100027 81 309 2.6 6.1 0.00 0.00 0.00 55 1022.0
20260905094524 80 51 1.7 5.2 0.00 0.00 0.00 57 1022.1
20260905093021 80 15 3.5 7.8 0.00 0.00 0.00 59 1022.0
20260905091518 79 21 1.7 6.1 0.00 0.00 0.00 60 1022.0
20260905090017 78 18 3.5 7.0 0.00 0.00 0.00 61 1021.9
20260905084510 76 9 2.6 7.0 0.00 0.00 0.00 61 1021.8
20260905083010 76 19 1.7 6.1 0.00 0.00 0.00 63 1021.8
20260905081505 75 355 2.6 7.0 0.00 0.00 0.00 65 1021.8
20260905080002 73 46 2.6 5.2 0.00 0.00 0.00 65 1021.7
20260905074558 72 66 0.0 0.9 0.00 0.00 0.00 67 1021.6
20260905073054 70 123 0.0 1.7 0.00 0.00 0.00 70 1021.4
20260905071551 68 103 0.9 2.6 0.00 0.00 0.00 73 1021.2